Location: ?ernice
(48.8383°N, 14.3803°E)
Time: 17:43:08
(UTC+00:00)

Cosmos 2278 - Pass Details

Date: 23 May 2024
Orbit: 837 x 853 km, 71.1° (Epoch: 13 June)

Event Time Altitude Azimuth Distance (km) Brightness Sun altitude
Rises 00:33:43 0° 330° (NNW) 3,432 7.4 -17.4°
Reaches altitude 10° 00:36:11 10° 330° (NNW) 2,493 6.6 -17.2°
Maximum altitude 00:41:55 78° 245° (WSW) 876 3.6 -16.8°
Enters shadow 00:46:53 14° 160° (SSE) 2,210 5.5 -16.5°
